This demonstration page uses our WeatherBlox Daily Observations layout. Learn more.

Left ArrowRight Arrow

Hourly Observations for January 2, 2016

Temp ( °F °C ) Dew Point ( °F °C ) Humidity (%) Winds ( mph kmh ) Pressure ( in mb ) Visibility ( mi km ) Precip ( " mm )
12:53 am 00:53 Clear 39 3.9 27 -2.8 62 62 NNW 8 13 30.28 1025 10 16 0.00 0.00
1:53 am 01:53 Clear 38 3.3 26 -3.3 62 62 NW 7 11 30.27 1025 10 16 0.00 0.00
2:53 am 02:53 Clear 37 2.8 25 -3.9 62 62 NNW 7 11 30.26 1025 10 16 0.00 0.00
3:53 am 03:53 Clear 36 2.2 25 -3.9 64 64 NNW 8 13 30.26 1025 10 16 0.00 0.00
4:53 am 04:53 Clear 36 2.2 25 -3.9 64 64 NW 12 19 30.27 1025 10 16 0.00 0.00
5:53 am 05:53 Clear 36 2.2 25 -3.9 64 64 NNW 8 13 30.27 1025 10 16 0.00 0.00
6:53 am 06:53 Clear 36 2.2 26 -3.3 67 67 NNW 8 13 30.27 1025 10 16 0.00 0.00
7:53 am 07:53 Sunny 35 1.7 26 -3.3 70 70 NW 5 7 30.28 1025 10 16 0.00 0.00
8:53 am 08:53 Sunny 36 2.2 26 -3.3 67 67 NW 6 9 30.29 1026 10 16 0.00 0.00
9:53 am 09:53 Sunny 37 2.8 26 -3.3 65 65 NNW 9 15 30.31 1027 10 16 0.00 0.00
10:53 am 10:53 Sunny 40 4.4 25 -3.9 55 55 N 6 9 30.30 1026 10 16 0.00 0.00
11:53 am 11:53 Sunny 43 6.1 24 -4.4 47 47 WNW 8 13 30.28 1025 10 16 0.00 0.00
12:53 pm 12:53 Sunny 45 7.2 23 -5 42 42 NNW 8 13 30.24 1024 10 16 0.00 0.00
1:53 pm 13:53 Sunny 46 7.8 23 -5 40 40 VRB 6 9 30.22 1023 10 16 0.00 0.00
2:53 pm 14:53 Sunny 46 7.8 24 -4.4 42 42 W 7 11 30.20 1023 10 16 0.00 0.00
3:53 pm 15:53 Sunny 46 7.8 25 -3.9 44 44 WNW 6 9 30.19 1022 10 16 0.00 0.00
4:53 pm 16:53 Sunny 46 7.8 26 -3.3 46 46 W 5 7 30.19 1022 10 16 0.00 0.00
5:53 pm 17:53 Clear 44 6.7 27 -2.8 51 51 W 5 7 30.19 1022 10 16 0.00 0.00
6:53 pm 18:53 Clear 44 6.7 27 -2.8 51 51 Calm 30.18 1022 10 16 0.00 0.00
7:53 pm 19:53 Clear 42 5.6 28 -2.2 58 58 W 3 6 30.17 1022 10 16 0.00 0.00
8:53 pm 20:53 Clear 41 5 28 -2.2 60 60 Calm 30.19 1022 10 16 0.00 0.00
9:53 pm 21:53 Clear 40 4.4 28 -2.2 63 63 WNW 3 6 30.19 1022 10 16 0.00 0.00
10:53 pm 22:53 Clear 40 4.4 27 -2.8 60 60 Calm 30.19 1022 10 16 0.00 0.00
11:53 pm 23:53 Clear 39 3.9 26 -3.3 60 60 Calm 30.17 1022 10 16 0.00 0.00

Powered by AerisWeather